Regional Weather Roundup
Issued by NWS Kansas City/Pleasant Hill, MO

Home | Current Version | Previous Version | Graphics & Text | Print | Product List | Glossary Off
Versions: 1 2 3 4 5 6 7 8 9 10 11 12 13 14 15 16 17 18 19 20 21 22 23 24 25 26 27 28 29 30 31 32 33 34 35 36 37 38 39 40 41 42 43 44 45 46 47 48 49 50

000
ASUS43 KEAX 041111
RWREAX

WEATHER ROUNDUP FOR EASTERN KANSAS AND NORTHWEST MISSOURI
NATIONAL WEATHER SERVICE KANSAS CITY/PLEASANT HILL MO
600 AM CDT SAT JUL 04 2015

KSZ040-057-103>105-MOZ028-029-037-043-041200-
...KANSAS CITY METROPOLITAN AREA...

CITY           SKY/WX    TMP DP  RH WIND       PRES   REMARKS
K.C. INTL      PTCLDY    59  57  93 CALM      30.00R FOG
K.C. DOWNTOWN  CLEAR     64  61  90 NW3       29.99R
LEES SUMMIT    CLEAR     60  57  89 CALM      30.00R
OLATHE - IXD   CLEAR     62  58  86 CALM      30.00R
OLATHE - OJC   CLEAR     62  58  86 CALM      29.99R
LAWRENCE       CLEAR     58  57  97 N3        30.00R FOG

$$

MOZ001>008-011>017-020>025-030>033-038>040-044>046-053-054-041200-
...NORTHERN AND CENTRAL MISSOURI...

CITY           SKY/WX    TMP DP  RH WIND       PRES   REMARKS
ST. JOSEPH     MOCLDY    57  56  96 N3        30.00R
MOSBY          PTSUNNY   59  59 100 CALM      29.99S FOG
HARRISONVILLE  CLEAR     61  61 100 CALM      30.02R
WARRENSBURG      N/A     59  59 100 CALM      29.99R FOG
WHITEMAN AFB   CLEAR     60  60 100 CALM      29.98R FOG
CLINTON        CLEAR     63  63 100 NE3       29.99R FOG
SEDALIA        CLEAR     62  59  90 CALM      30.00R
WARSAW         FAIR      59  59 100 CALM      30.00R
CHILLICOTHE      N/A     59  57  93 CALM      30.00R
KIRKSVILLE     FOG       56  54  93 CALM      30.00R VSB 1

$$

MOZ041-047>049-056>058-063>065-088>090-097-041200-
...EASTERN AND SOUTHERN MISSOURI...

CITY           SKY/WX    TMP DP  RH WIND       PRES   REMARKS
ST. LOUIS INTL CLEAR     70  64  83 CALM      29.97R HAZE
SPIRIT OF STL  CLEAR     64  63  96 CALM      29.96R FOG
COLUMBIA       CLEAR     62  59  90 CALM      29.99R
JEFFERSON CITY CLEAR     61  59  93 CALM      29.98R
MEXICO         CLEAR    N/A N/A N/A CALM      29.98R HAZE
ROLLA          CLEAR     60  59  96 CALM      29.98R
LEBANON        CLEAR     63  61  94 MISG      30.01R
OSAGE BEACH    CLEAR     61  57  88 CALM      29.99R
SPRINGFIELD    MOCLDY    66  62  87 CALM      29.98R
BRANSON        CLOUDY    66  66 100 CALM      29.99R
JOPLIN         MOCLDY    67  66  97 NE3       29.97R FOG
WEST PLAINS    CLEAR     65  62  90 CALM      29.99R FOG
MALDEN         FOG       72  70  94 CALM      29.95S VSB 1

$$

IAZ060-094-KSZ022-034>040-054-083-096-NEZ052-066-093-041200-
...KANSAS...SOUTHEAST NEBRASKA AND IOWA...

CITY           SKY/WX    TMP DP  RH WIND       PRES   REMARKS
TOPEKA         CLEAR     60  59  96 CALM      29.99S FOG
MANHATTAN      CLEAR     58  57  97 CALM      29.99S FOG
EMPORIA        CLEAR     59  58  96 CALM      29.98F
CHANUTE        PTCLDY    66  62  87 CALM      29.98R
WICHITA        PTCLDY    67  62  84 CALM      29.99R
OMAHA          CLEAR     59  57  93 CALM      29.99S FOG
LINCOLN        CLEAR     59  57  93 CALM      30.00R FOG
FALLS CITY     CLEAR     58  57  97 SE3       29.99R
LAMONI         CLEAR     60  54  80 CALM      30.00R
DES MOINES     PTCLDY    61  55  81 CALM      29.99R

$$



USA.gov is the U.S. government's official web portal to all federal, state and local government web resources and services.